PBO Station Position Time Series. Reference Frame : NAM14
Format Version,1.1.0
4-character ID,P467
Station name,AlabamaHilCS2006
Begin Date, 2006-03-17
End Date, 2019-10-07
Release Date, 2019-10-08
Reference position, 36.5702020386 North Latitude, -118.0906238394 East Longitude, 1380.11776 meters elevation,
Date, North (mm), East (mm), Vertical (mm), North Std. Deviation (mm), East Std. Deviation (mm),              Vertical Std. Deviation (mm), Quality,
2006-03-17,0.00, 0.00, 0.00, 2.21, 1.81, 8.44, repro,
2006-03-18,-0.50, -2.59, -4.59, 2.05, 1.69, 7.87, repro,
2006-03-19,-0.34, -1.99, -5.33, 2.06, 1.70, 7.90, repro,
2006-03-20,-1.09, -1.74, -4.40, 2.08, 1.69, 7.90, repro,
2006-03-21,-1.57, -3.36, -9.91, 2.05, 1.69, 7.79, repro,
2006-03-22,0.06, -2.37, -10.43, 2.05, 1.68, 7.81, repro,
2006-03-23,-0.56, -1.09, -9.68, 2.10, 1.71, 7.98, repro,
2006-03-24,-0.67, -0.56, -1.83, 2.13, 1.70, 8.05, repro,
2006-03-25,-4.55, 1.27, -8.12, 2.19, 1.75, 8.29, repro,
2006-03-26,-0.44, -2.72, -0.46, 2.44, 1.93, 9.23, repro,
2006-03-27,0.74, -0.95, -2.11, 2.11, 1.72, 8.04, repro,
2006-03-28,-4.92, -3.07, 0.98, 2.04, 1.69, 7.85, repro,
2006-03-29,0.54, -2.23, -11.92, 2.01, 1.69, 7.83, repro,
2006-03-30,0.04, -2.87, 2.93, 2.01, 1.66, 7.82, repro,
2006-03-31,-2.12, -3.58, -3.53, 2.02, 1.66, 7.77, repro,
2006-04-01,0.35, -2.73, 4.75, 2.02, 1.67, 7.84, repro,
2006-04-02,-0.35, -1.73, -1.97, 2.00, 1.66, 7.77, repro,
2006-04-03,-3.61, 0.20, 4.29, 2.01, 1.66, 7.81, repro,
2006-04-04,-0.35, -8.30, -38.45, 2.04, 1.68, 7.94, repro,
2006-04-05,-2.47, -6.72, -10.76, 2.05, 1.74, 8.19, repro,
2006-04-06,-0.36, -2.66, -2.41, 2.04, 1.70, 7.88, repro,
2006-04-07,-0.61, -4.46, -6.12, 2.12, 1.80, 8.30, repro,
2006-04-08,-2.28, -3.42, 3.25, 2.08, 1.73, 8.11, repro,
2006-04-09,-3.90, -4.60, -4.22, 2.00, 1.68, 7.83, repro,
2006-04-10,-0.41, -4.36, -1.65, 2.06, 1.68, 7.86, repro,
2006-04-11,-1.14, -4.74, -13.41, 2.06, 1.68, 8.03, repro,
2006-04-12,-3.35, -6.71, -17.03, 2.07, 1.69, 8.08, repro,
2006-04-13,-3.47, -7.17, -18.69, 2.00, 1.65, 7.70, repro,
2006-04-14,0.13, -6.91, -20.12, 2.01, 1.66, 7.81, repro,
2006-04-15,0.93, -2.33, -2.15, 2.10, 1.71, 8.10, repro,
2006-04-16,-1.97, -3.06, -5.00, 2.03, 1.72, 8.02, repro,
2006-04-17,-5.72, -8.64, 1.26, 2.02, 1.69, 7.86, repro,
2006-04-18,0.26, -2.87, -3.79, 2.06, 1.78, 8.35, repro,
2006-04-19,1.26, -3.23, -11.47, 2.00, 1.67, 7.83, repro,
2006-04-20,-0.16, -4.00, -3.87, 2.08, 1.76, 8.32, repro,
2006-04-21,1.63, -3.79, -8.72, 2.01, 1.66, 7.79, repro,
2006-04-22,-2.30, -2.72, -3.78, 2.05, 1.76, 8.18, repro,
2006-04-23,0.24, -3.45, -12.60, 2.04, 1.72, 8.06, repro,
2006-04-24,-0.14, -3.66, -9.39, 2.04, 1.73, 8.12, repro,
2006-04-25,0.45, -2.87, -13.57, 2.06, 1.74, 8.20, repro,
2006-04-26,1.83, -3.02, -10.41, 2.09, 1.75, 8.22, repro,
2006-04-27,1.21, -2.89, -11.42, 2.13, 1.77, 8.27, repro,
2006-04-28,3.34, -3.15, -12.77, 2.07, 1.69, 7.95, repro,
2006-04-29,-0.83, -4.28, -10.75, 2.01, 1.66, 7.88, repro,
2006-04-30,0.06, -3.47, -3.68, 2.02, 1.67, 7.89, repro,
2006-05-01,1.82, -1.32, -8.63, 2.04, 1.66, 7.92, repro,
2006-05-02,-0.54, -3.69, -6.70, 2.04, 1.67, 7.89, repro,
2006-05-03,-1.10, -2.52, -0.05, 2.03, 1.68, 7.84, repro,
2006-05-04,1.41, -2.39, -7.34, 2.00, 1.65, 7.79, repro,
2006-05-05,0.85, -3.00, -12.96, 2.03, 1.67, 7.94, repro,
2006-05-06,1.15, -3.06, -10.24, 2.02, 1.66, 7.83, repro,
2006-05-07,0.40, -3.77, -7.61, 2.03, 1.66, 7.81, repro,
2006-05-08,-0.49, -3.06, -8.59, 2.07, 1.73, 8.12, repro,
2006-05-09,0.66, -3.29, -5.16, 2.08, 1.69, 8.05, repro,
2006-05-10,0.54, -3.43, -12.25, 2.02, 1.70, 7.96, repro,
2006-05-11,-1.18, -1.59, -3.93, 2.05, 1.71, 8.13, repro,
2006-05-12,-0.10, -3.82, -7.91, 2.05, 1.70, 7.99, repro,
2006-05-13,0.63, -2.93, -6.26, 2.02, 1.66, 7.84, repro,
2006-05-14,0.01, -3.56, -16.70, 2.02, 1.67, 7.92, repro,
2006-05-15,-0.11, -2.02, -7.49, 2.01, 1.66, 7.82, repro,
2006-05-16,-1.11, -2.49, -3.49, 2.04, 1.71, 7.97, repro,
2006-05-17,0.40, -3.49, -9.24, 2.05, 1.71, 7.97, repro,
2006-05-18,1.26, -3.07, 1.48, 2.10, 1.69, 7.99, repro,
2006-05-19,-3.11, -2.39, 1.15, 2.15, 1.71, 8.21, repro,
2006-05-20,-6.82, -3.99, -0.31, 2.31, 1.91, 8.95, repro,
2006-05-21,-9.02, -6.89, -4.75, 2.19, 1.78, 8.52, repro,
2006-05-22,-1.60, -3.60, 0.95, 2.11, 1.74, 8.17, repro,
2006-05-23,-0.69, -4.38, -7.71, 2.08, 1.66, 7.89, repro,
2006-05-24,-0.52, -3.07, -5.40, 2.13, 1.72, 8.23, repro,
2006-05-25,-1.04, -2.64, -0.44, 2.23, 1.76, 8.62, repro,
2006-05-26,-0.47, -1.89, -5.05, 2.24, 1.72, 8.51, repro,
2006-05-27,-3.29, -1.32, -1.14, 2.10, 1.68, 7.99, repro,
2006-05-28,0.74, -3.61, -2.95, 2.08, 1.66, 7.94, repro,
2006-05-29,0.48, -1.60, -2.76, 2.13, 1.71, 8.17, repro,
2006-05-30,-0.42, -2.09, -2.96, 2.18, 1.76, 8.41, repro,
2006-05-31,0.11, -1.28, -8.22, 2.32, 1.84, 9.05, repro,
2006-06-01,0.48, -1.44, -2.07, 2.15, 1.71, 8.23, repro,
2006-06-02,1.77, -3.55, -6.21, 2.22, 1.76, 8.42, repro,
2006-06-03,-1.20, -2.45, -5.63, 2.17, 1.72, 8.21, repro,
2006-06-04,-1.59, -0.76, -5.46, 2.14, 1.72, 8.14, repro,
2006-06-05,-1.70, -1.96, -0.54, 2.15, 1.71, 8.22, repro,
2006-06-06,-0.10, -2.72, -1.06, 2.15, 1.71, 8.19, repro,
2006-06-07,-0.87, -2.47, -4.87, 2.19, 1.74, 8.39, repro,
2006-06-08,0.12, -2.37, -1.16, 2.08, 1.67, 8.00, repro,
2006-06-09,0.33, -2.66, -6.33, 2.09, 1.68, 8.05, repro,
2006-06-10,-0.75, -0.84, -0.83, 2.11, 1.72, 8.28, repro,
2006-06-11,-2.16, -0.57, 1.83, 2.15, 1.72, 8.25, repro,
2006-06-12,-5.18, -1.31, 0.14, 2.18, 1.78, 8.34, repro,
2006-06-13,-4.31, -5.02, -20.54, 2.14, 1.71, 8.24, repro,
2006-06-14,-1.15, 1.27, 1.18, 2.07, 1.66, 7.93, repro,
2006-06-15,0.75, -2.17, -2.45, 2.11, 1.70, 8.13, repro,
2006-06-16,-0.71, -0.56, 1.27, 2.11, 1.69, 8.08, repro,
2006-06-17,-0.20, -1.02, -1.07, 2.11, 1.68, 8.07, repro,
2006-06-18,-0.96, -1.08, 2.76, 2.11, 1.73, 8.35, repro,
2006-06-19,0.93, -3.11, -1.43, 2.16, 1.77, 8.42, repro,
2006-06-20,-0.70, -0.29, -0.63, 2.15, 1.78, 8.38, repro,
2006-06-21,-0.95, -0.97, -0.44, 2.15, 1.78, 8.40, repro,
2006-06-22,-0.77, -1.41, -3.80, 2.13, 1.73, 8.29, repro,
2006-06-23,0.18, -1.24, -14.78, 2.14, 1.73, 8.33, repro,
2006-06-24,-0.54, -1.60, -10.39, 2.13, 1.72, 8.28, repro,
2006-06-25,-0.39, -0.26, -8.70, 2.11, 1.72, 8.25, repro,
2006-06-26,-1.91, 0.04, -3.94, 2.22, 1.89, 8.64, repro,
2006-06-27,-1.94, -2.29, -7.93, 2.22, 1.86, 8.68, repro,
2006-06-28,0.32, -0.60, -10.03, 2.18, 1.80, 8.59, repro,
2006-06-29,-0.24, -1.34, -4.56, 2.09, 1.75, 8.21, repro,
2006-06-30,-1.72, -0.66, -2.59, 2.07, 1.68, 8.11, repro,
2006-07-01,-1.28, 0.92, 1.85, 2.08, 1.71, 8.21, repro,
2006-07-02,-0.47, 0.13, -7.75, 2.13, 1.76, 8.41, repro,
2006-07-03,0.17, -0.74, -15.08, 2.08, 1.69, 8.11, repro,
2006-07-04,-0.91, -0.22, -2.31, 2.09, 1.69, 8.16, repro,
2006-07-05,-2.15, -1.87, -5.78, 2.08, 1.69, 8.22, repro,
2006-07-06,0.41, -1.29, -19.50, 2.11, 1.74, 8.46, repro,
2006-07-07,-1.24, -0.96, -17.27, 2.08, 1.68, 8.17, repro,
2006-07-08,-1.92, -0.96, -16.60, 2.08, 1.70, 8.20, repro,
2006-07-09,-0.55, -0.28, -12.79, 2.09, 1.68, 8.10, repro,
2006-07-10,-0.22, -1.89, -8.45, 2.09, 1.68, 8.17, repro,
2006-07-11,-0.80, -0.23, -6.15, 2.08, 1.66, 8.13, repro,
2006-07-12,-2.68, 0.16, -12.99, 2.09, 1.69, 8.19, repro,
2006-07-13,-2.09, -0.16, -1.09, 2.08, 1.68, 8.05, repro,
2006-07-14,-0.97, -0.10, -4.26, 2.08, 1.67, 8.11, repro,
2006-07-15,-1.62, 0.23, -1.40, 2.09, 1.69, 8.18, repro,
2006-07-16,-1.64, -0.91, -10.31, 2.10, 1.69, 8.25, repro,
2006-07-17,-1.31, 0.91, -4.60, 2.18, 1.80, 8.69, repro,
2006-07-18,-3.44, -0.11, 3.07, 2.02, 1.66, 7.83, repro,
2006-07-19,-2.85, -0.60, -0.03, 2.02, 1.67, 7.91, repro,
2006-07-20,-1.22, -0.48, -8.39, 2.13, 1.74, 8.36, repro,
2006-07-21,-0.36, 0.89, -9.38, 2.05, 1.72, 8.05, repro,
2006-07-22,-2.23, 1.88, -1.26, 2.17, 1.79, 8.45, repro,
2006-07-23,0.61, -0.67, -12.09, 2.01, 1.66, 7.83, repro,
2006-07-24,0.04, -0.76, -9.43, 2.02, 1.67, 7.86, repro,
2006-07-25,-0.34, 1.00, -3.38, 2.01, 1.66, 7.94, repro,
2006-07-26,-1.93, 2.12, -0.92, 2.06, 1.72, 8.01, repro,
2006-07-27,-0.14, -0.90, -9.44, 2.05, 1.72, 8.09, repro,
2006-07-28,0.26, 2.40, -4.52, 2.10, 1.78, 8.41, repro,
2006-07-29,-2.47, 1.66, -10.55, 2.02, 1.68, 7.88, repro,
2006-07-30,0.52, 1.13, 8.21, 2.41, 2.10, 10.24, repro,
2006-07-31,-0.41, 2.60, 22.51, 2.75, 2.56, 13.02, repro,
2006-08-01,-2.58, 2.62, 30.70, 4.27, 4.08, 21.24, repro,
2006-08-02,-1.89, -0.02, -2.99, 4.40, 4.66, 24.77, repro,
2006-08-03,-3.11, 1.94, 10.83, 4.19, 4.25, 22.44, repro,
2006-08-04,1.03, -4.21, 3.99, 4.32, 4.29, 22.64, repro,
2006-08-05,1.25, -1.96, -7.94, 3.96, 3.97, 20.96, repro,
2006-08-06,3.34, -0.13, -7.91, 4.26, 4.60, 23.37, repro,
2006-08-07,2.29, 3.30, 26.16, 4.05, 4.04, 21.19, repro,
2006-08-08,-0.40, 1.56, -8.92, 4.09, 3.88, 20.20, repro,
2006-08-09,-0.54, -3.02, -10.11, 4.12, 4.05, 20.86, repro,
2006-08-10,2.86, 1.26, -11.99, 4.46, 4.30, 21.84, repro,
2006-08-11,-0.38, -1.45, -5.49, 4.25, 4.00, 20.66, repro,
2006-08-12,2.50, -0.64, 14.13, 4.17, 3.99, 21.27, repro,
2006-08-13,-1.15, -0.78, 4.23, 4.20, 3.96, 20.34, repro,
2006-08-14,-3.80, -3.31, 9.43, 4.10, 3.90, 19.82, repro,
2006-08-15,0.26, 0.31, 1.58, 4.25, 4.04, 21.66, repro,
2006-08-16,1.43, -0.19, -5.01, 4.16, 4.01, 20.28, repro,
2006-08-17,2.46, -1.33, -3.73, 4.49, 4.39, 23.22, repro,
2006-08-18,-1.39, 0.84, 6.63, 4.14, 3.95, 21.03, repro,
2006-08-19,-0.60, 2.92, -14.15, 4.12, 3.99, 20.14, repro,
2006-08-20,1.00, 0.52, 3.90, 4.12, 4.09, 21.38, repro,
2006-08-21,2.77, -0.21, -11.11, 4.10, 4.00, 20.38, repro,
2006-08-22,-0.05, 3.45, 23.26, 4.54, 4.39, 22.60, repro,
2006-08-23,-0.27, 2.94, 4.50, 4.32, 4.09, 20.96, repro,
2006-08-24,0.30, 1.49, -12.25, 4.31, 4.05, 20.38, repro,
2006-08-25,0.82, -2.64, -9.81, 4.30, 4.05, 21.26, repro,
2006-08-26,-0.41, -0.60, 7.85, 4.52, 4.76, 24.00, repro,
2006-08-27,-1.74, 1.78, -0.12, 4.37, 4.26, 22.09, repro,
2006-08-28,-1.50, 3.29, 14.00, 4.43, 4.31, 21.81, repro,
2006-08-29,-0.65, -1.07, 1.22, 4.36, 4.75, 23.61, repro,
2006-08-30,0.19, -1.31, 4.97, 4.39, 4.25, 22.69, repro,
2006-08-31,0.26, -1.89, -12.91, 4.27, 4.16, 20.35, repro,
2006-09-01,1.91, 0.32, -9.02, 4.23, 4.20, 20.84, repro,
2006-09-02,1.05, 0.10, 2.13, 4.20, 4.07, 21.50, repro,
2006-09-03,-1.58, 2.85, 15.91, 4.81, 4.99, 25.00, repro,
2006-09-04,-1.78, 7.13, 22.76, 4.80, 5.10, 27.23, repro,
2006-09-05,-0.49, 4.09, 5.30, 4.45, 4.64, 24.21, repro,
2006-09-06,2.32, -1.56, -7.22, 4.49, 5.02, 25.21, repro,
2006-09-07,1.18, 1.38, 18.80, 4.33, 4.54, 23.00, repro,
2006-09-08,-2.53, 2.50, -11.01, 4.48, 4.52, 22.70, repro,
2006-09-09,-2.91, 1.21, 9.23, 4.25, 4.23, 21.23, repro,
2006-09-10,-0.31, -0.54, -1.63, 4.35, 4.43, 22.20, repro,
2006-09-11,1.58, -0.01, 6.20, 4.49, 4.26, 22.52, repro,
2006-09-12,-0.86, 1.43, 0.96, 4.51, 4.37, 21.63, repro,
2006-09-13,2.65, -2.55, -4.47, 4.73, 4.37, 23.14, repro,
2006-09-14,1.50, -3.97, -5.76, 4.68, 4.96, 23.45, repro,
2006-09-15,0.90, 0.39, 23.58, 4.40, 4.17, 21.67, repro,
2006-09-16,-0.56, 5.41, 15.55, 4.23, 4.18, 21.38, repro,
2006-09-17,-2.86, 0.30, 11.29, 4.18, 4.09, 21.28, repro,
2006-09-18,-0.29, 0.08, 13.87, 4.33, 4.19, 20.94, repro,
2006-09-19,-2.07, 1.47, 23.42, 4.26, 4.19, 21.17, repro,
2006-09-20,-1.46, 4.19, 23.20, 4.03, 4.04, 19.88, repro,
2006-09-21,-2.74, 2.03, 1.56, 4.32, 4.38, 21.17, repro,
2006-09-22,2.32, 2.06, -3.67, 4.18, 4.26, 21.52, repro,
2006-09-23,1.90, -3.24, 7.77, 4.60, 4.34, 23.11, repro,
2006-09-24,0.68, -0.25, 5.02, 4.83, 5.13, 27.23, repro,
2006-09-25,24.67, 126.98, 283.28, 213.39, 594.51, 1384.80, repro,
2006-09-26,1.22, 3.48, 15.40, 4.68, 4.40, 22.83, repro,
2006-09-27,-1.21, 3.83, 6.20, 4.58, 4.28, 22.86, repro,
2006-09-28,0.58, -1.25, -0.60, 4.47, 3.98, 21.04, repro,
2006-09-29,-2.27, 1.93, 10.43, 4.63, 4.08, 21.66, repro,
2006-09-30,1.36, -4.34, -8.34, 4.55, 4.22, 22.82, repro,
2006-10-01,-2.10, 2.33, 24.27, 4.68, 4.27, 22.91, repro,
2006-10-02,2.29, -2.18, 0.89, 4.77, 4.50, 21.81, repro,
2006-10-03,-3.83, 2.12, 5.95, 4.65, 4.64, 24.22, repro,
2006-10-04,-1.12, 4.89, 23.72, 4.60, 4.24, 22.08, repro,
2006-10-05,-2.98, 0.23, 4.29, 4.62, 4.49, 22.48, repro,
2006-10-06,-0.52, -0.37, 3.72, 4.20, 4.20, 21.13, repro,
2006-10-07,-5.13, 1.53, -2.39, 4.43, 4.28, 22.02, repro,
2006-10-08,0.29, -0.43, -11.06, 4.44, 4.04, 21.19, repro,
2006-10-09,-1.34, -0.51, -4.94, 4.41, 4.13, 21.11, repro,
2006-10-10,-2.91, 2.54, 15.00, 4.37, 4.27, 21.63, repro,
2006-10-11,-2.87, -4.01, 4.83, 4.52, 4.30, 22.40, repro,
2006-10-12,-2.51, 1.43, 5.72, 4.44, 4.37, 23.08, repro,
2006-10-13,-0.28, -1.24, -7.46, 4.38, 4.21, 22.87, repro,
2006-10-14,-1.97, 4.80, 13.90, 4.44, 4.12, 20.40, repro,
2006-10-15,-2.24, -0.28, 5.27, 4.41, 4.21, 20.62, repro,
2006-10-16,0.39, -3.23, -16.88, 4.38, 4.40, 23.14, repro,
2006-10-17,4.15, 2.09, 13.61, 5.10, 5.61, 27.36, repro,
2006-10-18,-0.91, 0.32, -0.64, 4.31, 4.20, 20.64, repro,
2006-10-19,-0.31, -1.29, 8.43, 4.88, 5.42, 25.11, repro,
2006-10-20,1.19, 2.03, 6.88, 5.06, 5.22, 25.64, repro,
2006-10-21,-0.97, 2.85, -2.74, 4.77, 4.96, 24.70, repro,
2006-10-22,-2.02, 0.56, -2.48, 4.34, 4.41, 21.62, repro,
2006-10-23,-2.58, -0.52, -4.85, 4.29, 4.74, 23.98, repro,
2006-10-24,-0.40, -1.74, 14.34, 4.89, 5.52, 26.18, repro,
2006-10-25,0.11, -0.66, -0.53, 5.08, 5.76, 28.05, repro,
2006-10-26,-2.32, 0.49, 16.63, 4.80, 5.26, 25.43, repro,
2006-10-27,0.43, 1.45, 1.96, 4.24, 4.25, 20.76, repro,
2006-10-28,-1.00, 1.79, 3.26, 5.06, 5.20, 25.39, repro,
2006-10-29,-3.53, 1.23, 17.21, 4.23, 4.10, 20.74, repro,
2006-10-30,-1.88, -0.43, 3.78, 4.07, 4.13, 19.97, repro,
2006-10-31,-1.68, 0.73, 8.68, 4.75, 4.99, 25.39, repro,
2006-11-01,-3.87, 1.99, -2.39, 4.48, 4.96, 24.45, repro,
2006-11-02,1.56, -0.58, -3.37, 4.60, 4.85, 23.81, repro,
2006-11-03,-2.50, -3.43, -8.72, 4.22, 4.36, 21.36, repro,
2006-11-04,-2.19, -2.99, -22.72, 4.43, 4.39, 21.56, repro,
2006-11-05,-3.04, -0.55, -9.65, 4.14, 4.15, 20.98, repro,
2006-11-06,-1.50, -0.72, -3.69, 4.03, 4.17, 20.13, repro,
2006-11-07,-2.34, -0.31, -5.94, 4.40, 4.33, 20.80, repro,
2006-11-08,-1.94, -1.90, -14.78, 4.21, 4.52, 21.82, repro,
2006-11-09,-3.82, 1.80, 21.57, 4.28, 4.24, 21.07, repro,
2006-11-10,-3.07, -0.34, -4.43, 4.25, 4.27, 20.95, repro,
2006-11-11,-2.90, 9.77, 26.32, 4.02, 4.19, 20.55, repro,
2006-11-12,-3.01, -3.42, -3.29, 4.36, 4.33, 21.42, repro,
2006-11-13,2.97, 5.02, 6.51, 4.23, 4.20, 21.04, repro,
2006-11-14,3.03, 11.91, 17.50, 4.01, 4.12, 21.30, repro,
2006-11-15,-1.21, -2.09, -7.44, 3.83, 4.10, 19.38, repro,
2006-11-16,-0.34, 4.27, 30.07, 3.98, 4.03, 18.63, repro,
2006-11-17,-2.93, 3.55, 22.67, 4.07, 4.14, 20.79, repro,
2006-11-18,0.60, 3.25, 6.31, 4.07, 4.07, 20.30, repro,
2006-11-19,-0.69, 0.12, 7.21, 3.99, 4.09, 19.84, repro,
2006-11-20,0.86, 1.23, -0.54, 4.06, 4.27, 20.00, repro,
2006-11-21,-2.91, 3.09, 9.61, 4.12, 4.39, 20.66, repro,
2006-11-22,-2.81, 5.82, 5.19, 3.92, 4.07, 19.81, repro,
2006-11-23,-4.96, 6.58, 22.43, 4.15, 4.23, 21.40, repro,
2006-11-24,-2.31, 0.17, -6.95, 4.01, 4.20, 20.76, repro,
2006-11-25,-0.85, -0.65, -9.94, 3.90, 3.99, 19.91, repro,
2006-11-26,-0.96, -0.45, -10.04, 3.73, 3.84, 18.45, repro,
2006-11-27,-4.19, -7.15, -2.08, 3.77, 4.02, 19.20, repro,
2006-11-28,-0.54, -1.11, 1.36, 3.80, 4.03, 19.00, repro,
2006-11-29,-1.07, -2.80, -7.94, 3.93, 4.20, 20.65, repro,
2006-11-30,1.63, -1.77, -5.45, 4.03, 4.15, 21.11, repro,
2006-12-01,-1.16, -0.85, -16.85, 4.01, 3.98, 19.99, repro,
2006-12-02,-0.85, -0.64, -14.09, 4.00, 4.21, 20.77, repro,
2006-12-03,-1.42, -1.42, -10.23, 3.82, 3.98, 18.74, repro,
2006-12-04,-2.26, 1.47, -4.84, 3.97, 4.10, 21.00, repro,
2006-12-05,2.66, -3.54, -8.22, 4.08, 4.27, 20.40, repro,
2006-12-06,-0.36, 0.88, -9.73, 3.90, 4.12, 20.62, repro,
2006-12-07,-2.78, -3.69, -16.09, 3.84, 4.13, 19.86, repro,
2006-12-08,-1.33, -0.82, 3.99, 4.00, 4.19, 20.15, repro,
2006-12-09,1.01, -2.03, 17.13, 4.21, 4.23, 20.80, repro,
2006-12-10,-2.48, 1.15, -9.73, 3.87, 4.05, 20.19, repro,
2006-12-11,1.99, -0.51, 1.59, 6.01, 6.23, 27.35, repro,
2006-12-12,-1.70, -1.59, -3.61, 2.17, 1.87, 8.56, repro,
2006-12-13,-0.37, -0.01, -8.10, 2.09, 1.87, 8.39, repro,
2006-12-14,-0.15, -1.70, -2.01, 2.05, 1.80, 8.23, repro,
2006-12-15,-2.99, -1.92, -3.30, 2.14, 1.88, 8.46, repro,
2006-12-16,0.16, -4.87, -17.35, 2.07, 1.84, 8.15, repro,
2006-12-17,0.12, -0.08, -10.32, 2.14, 1.93, 8.68, repro,
2006-12-18,-1.42, -0.47, 0.32, 2.42, 2.20, 9.77, repro,
2006-12-19,0.29, 0.06, -1.09, 2.20, 2.03, 8.87, repro,
2006-12-20,-1.68, -0.33, -3.57, 2.21, 1.99, 8.73, repro,
2006-12-21,-1.10, -1.10, -7.84, 2.07, 1.95, 8.41, repro,
2006-12-22,0.60, 2.34, 12.39, 2.21, 1.98, 8.88, repro,
2006-12-23,0.53, -1.03, -12.49, 2.15, 1.95, 8.59, repro,
2006-12-24,-0.82, 0.40, -8.92, 2.01, 1.75, 8.00, repro,
2006-12-25,-0.19, 0.34, -3.90, 2.09, 1.89, 8.29, repro,
2006-12-26,-3.37, 8.79, 19.23, 2.10, 1.84, 8.45, repro,
2006-12-27,-2.34, -5.12, -24.06, 2.12, 1.89, 8.54, repro,
2006-12-28,3.11, -3.41, -10.52, 2.42, 2.45, 10.50, repro,
2006-12-29,-0.60, -2.39, -7.43, 2.22, 2.05, 9.23, repro,
2006-12-30,-0.27, -1.19, -9.20, 2.15, 1.88, 8.54, repro,
2006-12-31,-0.42, -0.72, -8.33, 2.26, 2.00, 9.34, repro,
2007-01-01,0.23, 0.62, -0.55, 2.35, 2.20, 9.71, repro,
2007-01-02,-0.36, -0.17, -5.76, 2.28, 2.19, 9.58, repro,
2007-01-03,-0.08, -0.53, -7.39, 2.13, 2.01, 8.77, repro,
2007-01-04,-1.34, 0.83, 1.74, 2.01, 1.78, 8.09, repro,
2007-01-05,2.84, -3.77, -4.66, 2.02, 1.83, 8.06, repro,
2007-01-06,-0.55, -0.11, -5.24, 2.03, 1.84, 8.20, repro,
2007-01-07,0.41, 0.11, -8.70, 2.02, 1.77, 8.04, repro,
2007-01-08,-0.27, -2.17, -11.61, 2.08, 1.83, 8.21, repro,
2007-01-09,-0.18, -0.92, -14.12, 2.04, 1.76, 7.86, repro,
2007-01-10,-0.24, 0.27, -6.58, 2.03, 1.75, 7.81, repro,
2007-01-11,-2.70, 2.09, -0.57, 2.09, 1.73, 8.00, repro,
2007-01-12,-1.04, -1.44, -8.08, 2.01, 1.71, 7.92, repro,
2007-01-13,-0.35, -0.31, -10.68, 1.97, 1.69, 7.68, repro,
2007-01-14,-0.42, -0.22, -13.50, 1.98, 1.69, 7.70, repro,
2007-01-15,-0.34, -1.52, -21.22, 2.35, 2.15, 9.69, repro,
2007-01-16,0.25, -0.98, -12.09, 2.00, 1.68, 7.73, repro,
2007-01-17,-0.62, -0.27, -7.59, 2.00, 1.74, 7.88, repro,
2007-01-18,-0.27, -1.59, -18.95, 2.10, 1.82, 8.44, repro,
2007-01-19,1.03, 0.39, -17.57, 2.04, 1.72, 7.99, repro,
2007-01-20,-1.14, -0.02, -9.83, 2.04, 1.72, 7.97, repro,
2007-01-21,0.41, -1.15, -13.38, 1.97, 1.70, 7.64, repro,
2007-01-22,-0.91, -0.20, -7.94, 1.99, 1.68, 7.68, repro,
2007-01-23,-0.19, 0.23, -15.77, 2.00, 1.73, 7.89, repro,
2007-01-24,-0.66, 0.01, -12.62, 1.98, 1.70, 7.70, repro,
2007-01-25,-0.66, -0.44, -18.53, 2.12, 1.80, 8.17, repro,
2007-01-26,-0.78, 0.14, -12.68, 1.96, 1.69, 7.56, repro,
2007-01-27,0.44, 0.66, -8.68, 1.97, 1.69, 7.54, repro,
2007-01-28,-0.01, 0.74, -9.77, 1.97, 1.70, 7.56, repro,
2007-01-29,-0.20, 0.28, -14.53, 2.02, 1.74, 7.86, repro,
2007-01-30,-0.30, -0.33, -11.39, 2.00, 1.75, 7.76, repro,
2007-01-31,-2.05, -1.18, -2.68, 1.96, 1.69, 7.57, repro,
2007-02-01,-1.33, 0.29, -2.79, 1.99, 1.75, 7.86, repro,
2007-02-02,-0.22, -0.12, -8.15, 2.01, 1.70, 7.70, repro,
2007-02-03,-0.44, -0.11, -10.02, 2.01, 1.70, 7.78, repro,
2007-02-04,-1.09, 0.33, -7.82, 1.96, 1.69, 7.58, repro,
2007-02-05,-0.78, 0.28, -14.56, 1.97, 1.69, 7.62, repro,
2007-02-06,-0.73, 0.80, -7.49, 2.01, 1.72, 7.74, repro,
2007-02-07,-2.40, -0.91, -6.95, 1.98, 1.71, 7.69, repro,
2007-02-08,-1.63, 3.00, -1.47, 2.04, 1.75, 7.80, repro,
2007-02-09,-1.16, 4.60, 10.72, 2.01, 1.74, 7.79, repro,
2007-02-10,-4.67, 2.34, -9.17, 2.01, 1.75, 7.87, repro,
2007-02-11,0.87, 1.71, -2.46, 1.98, 1.71, 7.68, repro,
2007-02-12,-0.89, -1.25, -15.10, 1.97, 1.70, 7.64, repro,
2007-02-13,-0.76, 0.17, -10.10, 2.00, 1.73, 7.92, repro,
2007-02-14,-0.78, 0.03, -12.45, 1.95, 1.67, 7.44, repro,
2007-02-15,0.20, -0.43, -9.45, 1.96, 1.68, 7.56, repro,
2007-02-16,0.42, -0.87, -9.59, 1.96, 1.70, 7.61, repro,
2007-02-17,-0.74, -0.45, -7.37, 2.02, 1.75, 7.85, repro,
2007-02-18,0.54, 0.59, 1.63, 1.98, 1.69, 7.72, repro,
2007-02-19,-0.89, -0.39, 3.66, 1.97, 1.68, 7.59, repro,
2007-02-20,-2.15, -0.77, 2.98, 2.00, 1.73, 7.73, repro,
2007-02-21,-0.90, 4.45, 6.37, 1.98, 1.68, 7.65, repro,
2007-02-22,-9.00, -1.27, -11.38, 1.99, 1.70, 7.75, repro,
2007-02-23,-1.65, -1.13, -14.39, 2.06, 1.77, 8.02, repro,
2007-02-24,-1.01, -0.51, -0.96, 1.98, 1.68, 7.67, repro,
2007-02-25,-2.43, -3.67, -16.36, 2.06, 1.75, 7.92, repro,
2007-02-26,-3.95, -5.25, 13.80, 2.02, 1.73, 7.80, repro,
2007-02-27,-1.98, -3.37, -14.69, 1.99, 1.73, 7.77, repro,
2007-02-28,-1.54, 0.19, 3.45, 1.99, 1.68, 7.66, repro,
2007-03-01,-1.18, -0.86, -0.21, 2.04, 1.76, 8.04, repro,
2007-03-02,-0.96, -1.02, -7.16, 2.05, 1.77, 8.06, repro,
2007-03-03,0.01, 0.11, -10.35, 2.02, 1.74, 7.86, repro,
2007-03-04,-1.03, 0.09, -9.33, 2.02, 1.74, 7.87, repro,
2007-03-05,0.02, 1.08, -5.71, 2.02, 1.72, 7.81, repro,
2007-03-06,-1.59, -1.19, -3.87, 2.01, 1.71, 7.75, repro,
2007-03-07,-0.54, 0.42, 5.49, 2.00, 1.73, 7.79, repro,
2007-03-08,-0.05, -4.32, -2.26, 2.03, 1.71, 7.80, repro,
2007-03-09,-0.39, -1.38, -1.70, 2.01, 1.72, 7.77, repro,
2007-03-10,-0.42, 0.42, -0.88, 2.06, 1.75, 7.97, repro,
2007-03-11,-0.76, -1.33, -9.81, 2.01, 1.72, 7.73, repro,
2007-03-12,-1.70, -1.12, -8.12, 2.04, 1.76, 7.98, repro,
2007-03-13,-0.83, -0.72, -5.23, 1.99, 1.68, 7.63, repro,
2007-03-14,-0.87, -0.93, -0.29, 1.99, 1.66, 7.50, repro,
2007-03-15,-0.78, -0.71, -3.44, 2.00, 1.69, 7.63, repro,
2007-03-16,-1.20, -1.78, -7.68, 2.00, 1.68, 7.56, repro,
2007-03-17,-0.41, -1.88, -3.32, 1.99, 1.67, 7.55, repro,
2007-03-18,-1.02, -1.30, 0.27, 2.01, 1.73, 7.83, repro,
2007-03-19,-1.00, -1.64, 2.83, 1.99, 1.68, 7.63, repro,
2007-03-20,-4.48, -1.87, 10.20, 2.05, 1.69, 7.73, repro,
2007-03-21,-0.47, -2.25, 2.15, 2.06, 1.73, 7.89, repro,
2007-03-22,-0.55, -2.08, 4.47, 2.01, 1.73, 7.72, repro,
2007-03-23,-0.65, -1.34, 1.37, 2.00, 1.73, 7.81, repro,
2007-03-24,-1.26, -2.68, -0.79, 2.00, 1.70, 7.70, repro,
2007-03-25,-1.68, -1.53, 4.29, 2.05, 1.70, 7.76, repro,
2007-03-26,-2.93, -2.72, -3.88, 1.97, 1.65, 7.46, repro,
2007-03-27,-1.17, -4.91, -5.24, 2.06, 1.73, 7.93, repro,
2007-03-28,0.03, -2.50, -4.10, 2.04, 1.69, 7.75, repro,
2007-03-29,-0.56, -2.24, -10.62, 1.99, 1.70, 7.69, repro,
2007-03-30,-0.82, -1.11, -8.00, 1.98, 1.66, 7.52, repro,
2007-03-31,-0.59, -2.17, -6.09, 1.98, 1.65, 7.46, repro,
2007-04-01,-0.42, -1.30, 1.36, 1.97, 1.64, 7.40, repro,
2007-04-02,-1.00, -3.37, 2.31, 1.99, 1.66, 7.54, repro,
2007-04-03,-0.76, -0.81, -7.11, 2.03, 1.75, 7.93, repro,
2007-04-04,-0.69, -2.46, -10.34, 2.01, 1.71, 7.74, repro,
2007-04-05,-1.50, -2.45, -8.15, 2.12, 1.82, 8.17, repro,
2007-04-06,-0.53, -1.95, -15.29, 2.09, 1.79, 8.03, repro,
2007-04-07,-0.56, -1.82, -4.06, 2.02, 1.70, 7.71, repro,
2007-04-08,-1.92, -0.68, 7.79, 2.00, 1.67, 7.64, repro,
2007-04-09,-0.05, -0.52, -0.55, 1.98, 1.66, 7.53, repro,
2007-04-10,-0.79, 1.39, 11.28, 2.03, 1.71, 7.72, repro,
2007-04-11,-1.32, 2.38, -1.06, 2.15, 1.79, 8.19, repro,
2007-04-12,0.98, -3.36, -1.68, 1.99, 1.65, 7.54, repro,
2007-04-13,0.33, -1.59, -8.41, 1.99, 1.66, 7.59, repro,
2007-04-14,-2.33, -2.51, 1.66, 2.01, 1.69, 7.66, repro,
2007-04-15,-1.57, -0.76, -0.33, 2.06, 1.70, 7.85, repro,
2007-04-16,-0.41, -2.58, -7.52, 2.01, 1.66, 7.67, repro,
2007-04-17,-1.72, -3.67, -9.13, 2.06, 1.67, 7.77, repro,
2007-04-18,-3.52, -4.29, -6.25, 2.00, 1.68, 7.67, repro,
2007-04-19,0.73, -2.20, -11.90, 2.54, 1.95, 9.26, repro,
2007-04-20,0.53, -0.48, -0.44, 1.99, 1.66, 7.64, repro,
2007-04-21,-0.50, -1.81, -4.84, 1.99, 1.66, 7.59, repro,
2007-04-22,-1.21, -0.48, 10.37, 2.00, 1.66, 7.60, repro,
2007-04-23,1.24, -2.44, -7.03, 2.03, 1.68, 7.64, repro,
2007-04-24,-1.47, -2.16, -11.99, 2.07, 1.76, 7.86, repro,
2007-04-25,-1.05, -2.52, -7.79, 2.05, 1.69, 7.78, repro,
2007-04-26,-1.17, -1.84, -0.93, 2.01, 1.67, 7.68, repro,
2007-04-27,1.26, -2.89, -12.17, 1.98, 1.64, 7.49, repro,
2007-04-28,-0.63, -2.53, -8.14, 1.98, 1.63, 7.51, repro,
2007-04-29,-0.55, -1.71, -2.91, 2.01, 1.65, 7.62, repro,
2007-04-30,-0.78, -2.32, -7.45, 2.02, 1.65, 7.66, repro,
2007-05-01,-0.07, -2.57, -8.14, 2.01, 1.65, 7.69, repro,
2007-05-02,-3.10, -1.66, 0.72, 2.09, 1.67, 7.99, repro,
2007-05-03,-3.61, -3.86, -0.95, 2.14, 1.69, 8.03, repro,
2007-05-04,-1.09, 3.08, 6.48, 2.00, 1.64, 7.55, repro,